Date String (YYYY-MM-DD hh:mm:ss) UTC,Instrument flags,Ambient pressure (hPa),Sample flow (lpm),Bypass flow (lpm),Sample temperature (°C),Ambient temperature (°C),ASC tube jacket temperature (°C),LED temperature (°C),Box temperature (°C),Sample RH (%),Span deviation,Mass concentration (μg/m³),Mass concentration (μg/m³),Mass concentration (μg/m³)
DateTimeUTC,F1_M11,P_M11,Q1_M11,Q2_M11,T1_M11,T2_M11,T3_M11,T4_M11,T5_M11,U1_M11,ZSPAN_M11,X0_M11,X2_M11,X1_M11
2021-11-28 15:00:00,,0830.1,4.99,0.00,23.1,22.3,00.0,32.0,24.9,14.8,0000.0,0007.42,0002.36,0001.52
2021-11-28 15:01:00,,0830.2,5.00,0.00,23.1,22.3,00.0,32.0,24.9,14.9,0000.0,0006.91,0002.28,0001.51
2021-11-28 15:02:00,,0830.1,4.99,0.00,23.1,22.3,00.0,32.0,24.9,14.9,0000.0,0006.20,0002.21,0001.49
2021-11-28 15:03:00,,0830.1,5.01,0.00,23.1,22.3,00.0,32.0,24.9,14.9,0000.0,0006.54,0002.22,0001.48
2021-11-28 15:04:00,,0830.1,4.99,0.00,23.1,22.3,00.0,32.0,24.9,14.7,0000.0,0006.59,0002.25,0001.49
2021-11-28 15:05:00,,0830.1,5.00,0.00,23.1,22.4,00.0,32.0,24.9,14.8,0000.0,0006.52,0002.28,0001.48
2021-11-28 15:06:00,,0830.1,5.00,0.00,23.1,22.4,00.0,32.1,24.9,14.8,0000.0,0006.63,0002.26,0001.46
2021-11-28 15:07:00,,0830.1,5.00,0.00,23.1,22.4,00.0,32.1,25.0,14.8,0000.0,0007.38,0002.25,0001.45
2021-11-28 15:08:00,,0830.1,5.00,0.00,23.2,22.4,00.0,32.1,25.0,14.8,0000.0,0007.87,0002.23,0001.44
2021-11-28 15:09:00,,0830.1,5.01,0.00,23.2,22.4,00.0,32.1,25.0,14.9,0000.0,0007.97,0002.30,0001.43
2021-11-28 15:10:00,,0830.1,5.00,0.00,23.2,22.4,00.0,32.1,25.0,15.0,0000.0,0008.05,0002.35,0001.42
2021-11-28 15:11:00,,0830.2,4.99,0.00,23.2,22.5,00.0,32.1,25.0,14.9,0000.0,0007.69,0002.36,0001.41
2021-11-28 15:12:00,,0830.3,4.99,0.00,23.2,22.5,00.0,32.1,25.0,14.9,0000.0,0007.71,0002.43,0001.41
2021-11-28 15:13:00,,0830.2,5.01,0.00,23.2,22.5,00.0,32.1,25.1,15.0,0000.0,0007.62,0002.49,0001.41
2021-11-28 15:14:00,,0830.2,4.99,0.00,23.2,22.5,00.0,32.2,25.1,15.0,0000.0,0007.93,0002.45,0001.41
2021-11-28 15:15:00,,0830.3,5.01,0.00,23.3,22.5,00.0,32.2,25.1,15.1,0000.0,0008.43,0002.54,0001.41
2021-11-28 15:16:00,,0830.3,5.00,0.00,23.3,22.5,00.0,32.2,25.1,15.0,0000.0,0008.46,0002.55,0001.41
2021-11-28 15:17:00,,0830.4,5.00,0.00,23.3,22.6,00.0,32.2,25.1,14.8,0000.0,0008.63,0002.53,0001.41
2021-11-28 15:18:00,,0830.5,5.00,0.00,23.3,22.6,00.0,32.2,25.1,14.7,0000.0,0008.24,0002.51,0001.41
2021-11-28 15:19:00,,0830.5,5.00,0.00,23.3,22.6,00.0,32.2,25.1,14.7,0000.0,0007.94,0002.51,0001.42
2021-11-28 15:20:00,,0830.4,5.01,0.00,23.3,22.6,00.0,32.2,25.2,14.7,0000.0,0007.59,0002.47,0001.43
2021-11-28 15:21:00,,0830.4,5.00,0.00,23.3,22.6,00.0,32.2,25.2,14.7,0000.0,0007.40,0002.36,0001.43
2021-11-28 15:22:00,,0830.5,4.99,0.00,23.4,22.6,00.0,32.3,25.2,14.5,0000.0,0007.44,0002.36,0001.44
2021-11-28 15:23:00,,0830.6,5.01,0.00,23.4,22.6,00.0,32.3,25.2,14.4,0000.0,0007.39,0002.33,0001.46
2021-11-28 15:24:00,,0830.6,4.99,0.00,23.4,22.6,00.0,32.3,25.2,14.5,0000.0,0007.27,0002.31,0001.47
2021-11-28 15:25:00,,0830.6,5.00,0.00,23.4,22.6,00.0,32.3,25.2,14.5,0000.0,0007.27,0002.34,0001.48
2021-11-28 15:26:00,,0830.6,4.99,0.00,23.4,22.6,00.0,32.3,25.2,14.4,0000.0,0006.59,0002.34,0001.48
2021-11-28 15:27:00,,0830.6,5.00,0.00,23.4,22.7,00.0,32.3,25.2,14.4,0000.0,0006.53,0002.34,0001.48
2021-11-28 15:28:00,,0830.6,5.00,0.00,23.4,22.7,00.0,32.3,25.2,14.4,0000.0,0006.49,0002.38,0001.48
2021-11-28 15:29:00,,0830.8,5.00,0.00,23.4,22.7,00.0,32.3,25.2,14.3,0000.0,0007.01,0002.41,0001.51
2021-11-28 15:30:00,,0830.8,5.00,0.00,23.4,22.7,00.0,32.3,25.2,14.4,0000.0,0007.88,0002.40,0001.52
2021-11-28 15:31:00,,0830.7,5.01,0.00,23.5,22.7,00.0,32.3,25.3,14.3,0000.0,0008.04,0002.36,0001.51
2021-11-28 15:32:00,,0830.8,5.01,0.00,23.5,22.7,00.0,32.4,25.3,14.3,0000.0,0008.07,0002.40,0001.50
2021-11-28 15:33:00,,0830.7,4.99,0.00,23.5,22.7,00.0,32.4,25.3,14.2,0000.0,0008.12,0002.45,0001.50
2021-11-28 15:34:00,,0830.8,4.98,0.00,23.5,22.7,00.0,32.4,25.3,14.2,0000.0,0008.22,0002.54,0001.50
2021-11-28 15:35:00,,0830.8,5.00,0.00,23.5,22.8,00.0,32.4,25.3,14.3,0000.0,0008.23,0002.53,0001.49
2021-11-28 15:36:00,,0830.8,5.01,0.00,23.5,22.8,00.0,32.4,25.4,14.3,0000.0,0008.02,0002.53,0001.47
2021-11-28 15:37:00,,0830.8,4.98,0.00,23.6,22.8,00.0,32.4,25.4,14.3,0000.0,0007.89,0002.48,0001.47
2021-11-28 15:38:00,,0830.9,5.00,0.00,23.6,22.8,00.0,32.5,25.4,14.2,0000.0,0008.14,0002.43,0001.47
2021-11-28 15:39:00,,0830.9,5.01,0.00,23.6,22.8,00.0,32.5,25.4,14.2,0000.0,0008.12,0002.41,0001.47
2021-11-28 15:40:00,,0830.9,5.00,0.00,23.6,22.9,00.0,32.5,25.4,14.3,0000.0,0007.82,0002.40,0001.45
2021-11-28 15:41:00,,0831.0,5.00,0.00,23.6,22.9,00.0,32.5,25.5,14.3,0000.0,0006.76,0002.41,0001.44
2021-11-28 15:42:00,,0830.9,4.99,0.00,23.6,22.9,00.0,32.5,25.5,14.3,0000.0,0006.18,0002.45,0001.43
2021-11-28 15:43:00,,0830.8,5.01,0.00,23.6,22.9,00.0,32.5,25.5,14.2,0000.0,0006.53,0002.51,0001.45
2021-11-28 15:44:00,,0830.9,4.99,0.00,23.6,23.0,00.0,32.5,25.5,14.3,0000.0,0006.91,0002.46,0001.44
2021-11-28 15:45:00,,0830.9,5.02,0.00,23.7,23.0,00.0,32.6,25.5,14.4,0000.0,0007.64,0002.39,0001.43
2021-11-28 15:46:00,,0830.8,4.99,0.00,23.7,23.0,00.0,32.6,25.5,14.3,0000.0,0007.65,0002.38,0001.43
2021-11-28 15:47:00,,0830.7,4.99,0.00,23.7,23.0,00.0,32.6,25.5,14.2,0000.0,0007.60,0002.39,0001.44
2021-11-28 15:48:00,,0830.8,5.01,0.00,23.7,23.0,00.0,32.6,25.5,14.3,0000.0,0007.60,0002.43,0001.44
2021-11-28 15:49:00,,0830.9,5.01,0.00,23.7,23.0,00.0,32.6,25.5,14.3,0000.0,0007.24,0002.42,0001.43
2021-11-28 15:50:00,,0830.9,5.00,0.00,23.7,23.0,00.0,32.6,25.5,14.2,0000.0,0006.86,0002.44,0001.41
2021-11-28 15:51:00,,0830.9,4.99,0.00,23.7,23.1,00.0,32.7,25.5,14.1,0000.0,0007.17,0002.44,0001.40
2021-11-28 15:52:00,,0830.9,4.99,0.00,23.7,23.1,00.0,32.7,25.5,14.1,0000.0,0007.82,0002.44,0001.40
2021-11-28 15:53:00,,0830.8,5.00,0.00,23.8,23.1,00.0,32.7,25.6,14.2,0000.0,0008.56,0002.36,0001.38
2021-11-28 15:54:00,,0830.9,5.01,0.00,23.8,23.1,00.0,32.7,25.6,14.1,0000.0,0008.43,0002.28,0001.34
2021-11-28 15:55:00,,0830.9,4.99,0.00,23.8,23.1,00.0,32.7,25.6,14.2,0000.0,0008.74,0002.25,0001.31
2021-11-28 15:56:00,,0830.8,5.01,0.00,23.8,23.1,00.0,32.7,25.6,14.2,0000.0,0008.13,0002.21,0001.29
2021-11-28 15:57:00,,0830.8,4.99,0.00,23.8,23.1,00.0,32.7,25.6,14.1,0000.0,0008.02,0002.20,0001.27
2021-11-28 15:58:00,,0830.9,5.01,0.00,23.8,23.2,00.0,32.8,25.7,14.1,0000.0,0008.11,0002.18,0001.23
2021-11-28 15:59:00,,0830.9,5.00,0.00,23.9,23.2,00.0,32.8,25.7,14.2,0000.0,0008.02,0002.11,0001.20
